小惑星イダルゴ

(944) Hidalgo (2018)

English version
Home page
Updated on September 3, 2012

---------------------------------------------------------------------

・ プロフィール

・ 軌道要素

The following orbital elements are taken from MPO 65988

Epoch 2012 Sept. 30.0 TT = JDT 2456200.5                Goffin
M 201.10354              (2000.0)            P               Q
n   0.07171286     Peri.   56.61621     +0.28526711     -0.92557508
a   5.7377025      Node    21.59242     +0.48592068     -0.08414295
e   0.6616737      Incl.   42.55198     +0.82613786     +0.36909448
P  13.7            H   10.77          G   0.15           U   0
From 255 observations at 16 oppositions, 1920-2003, mean residual 0".55.

・ 星図

・ 光度変化

        H = 10.8  G = 0.15

---------------------------------------------------------------------

軌道要素はMPCのEphemerides and Orbital Elementsに掲載されたものです。
星図はステラナビゲータ Ver.8 (アストロアーツ) で作成したものです。
光度グラフはComet for Windowsで作成したものです。

---------------------------------------------------------------------

Copyright(C) Seiichi Yoshida (comet@aerith.net). All rights reserved.